Dewpoint
58 59 60 60 60 60 61 61 61 61 61 61 61 61 61 61 60 47 27 36 70 77 76 70 68 69 66 67 63 64 53 50 51 53 52 55 57 60 60 59 59 60 60 63 66
60 60 60 60 60 60 60 60 60 61 61 60 60 61 61 61 56 41 48 69 78 75 67 64 67 67 65 65 60 56 51 50 53 53 53 56 58 59 59 57 58 61 64 65 66
60 60 60 60 60 60 60 60 60 60 60 60 60 61 61 60 35 27 64 76 77 73 69 69 68 66 64 62 60 57 52 53 54 55 54 56 58 59 58 56 58 60 63 64 66
59 59 60 59 59 60 60 60 60 60 60 60 60 61 61 55 20 41 72 78 77 70 70 66 66 59 55 50 58 55 55 54 54 55 54 56 57 58 57 57 59 61 63 65 65
59 59 59 59 59 59 60 59 58 58 59 59 60 61 54 24 19 72 77 78 75 67 61 40 59 53 43 45 49 55 53 56 52 52 55 54 56 57 58 59 60 62 64 64 65
58 58 58 58 59 59 59 59 59 59 59 59 60 61 45 14 24 72 75 75 72 64 51 38 40 45 42 43 48 51 50 51 53 52 55 56 57 57 59 59 62 63 63 64 64
59 58 58 58 58 58 58 58 58 58 59 59 60 58 37 21 50 55 65 68 59 59 38 39 35 39 39 37 48 49 49 51 52 54 54 57 55 57 59 58 61 62 63 63 64
59 58 58 58 58 58 57 57 57 59 59 59 61 53 28 30 37 39 31 29 48 52 42 39 40 40 39 41 42 47 47 46 52 54 53 54 51 57 59 56 57 60 60 62 62
58 58 57 57 57 57 56 56 58 60 60 61 51 43 29 41 31 30 31 22 25 30 32 35 39 35 37 35 35 40 40 44 49 53 52 54 53 55 55 56 54 54 56 59 59
58 58 57 57 56 55 55 56 57 59 58 57 50 34 23 24 27 32 28 25 17 16 21 28 30 27 31 30 29 33 36 42 46 51 52 53 53 54 54 56 55 55 54 55 56
58 57 57 57 56 54 53 42 40 40 44 35 32 27 30 32 34 32 28 15 16 16 18 24 23 27 25 31 31 34 36 38 47 52 50 50 51 53 55 57 56 55 55 54 54
58 57 57 56 55 55 51 41 42 43 40 40 39 36 35 35 31 31 16 12 11 10 22 19 20 22 25 29 31 35 41 46 50 54 51 53 50 54 55 56 58 57 55 55 55
58 57 56 55 54 51 49 42 47 44 36 32 34 34 34 34 31 29 14 12 11 14 19 19 22 24 24 23 22 25 40 46 44 52 51 50 48 52 57 57 56 58 56 56 55
58 57 56 54 43 49 43 48 48 46 24 23 29 29 34 34 27 33 17 14 17 14 19 18 20 21 21 21 20 18 27 37 50 46 42 49 41 46 52 53 55 56 57 56 56
57 57 55 53 47 44 40 49 48 33 11 26 26 28 31 23 17 21 21 14 13 14 17 17 20 19 19 15 21 17 46 48 48 45 42 43 43 44 49 49 50 53 56 57 57
57 56 55 51 49 50 50 50 34 17 5 24 22 23 26 23 23 19 16 14 14 12 13 16 18 16 14 15 18 38 40 37 40 39 38 40 39 37 43 43 49 50 53 56 58
55 54 53 52 42 50 48 34 18 19 21 22 20 21 20 19 19 19 16 22 12 14 22 10 10 11 13 12 19 34 33 31 35 35 37 40 41 39 41 48 48 48 52 54 56
54 52 52 51 51 51 36 28 22 20 30 26 19 20 18 15 17 17 15 15 14 11 11 7 5 10 11 9 10 31 31 18 17 23 27 44 38 36 44 46 49 51 52 57 58
52 50 49 52 52 49 25 21 10 24 27 21 19 21 20 20 19 17 14 13 14 10 9 8 8 9 11 12 5 12 16 19 34 37 32 36 41 41 45 47 49 52 52 54 57
51 49 49 52 52 36 24 24 27 30 26 26 22 22 21 19 20 20 16 15 13 12 17 9 7 8 8 8 9 10 16 18 25 29 29 32 39 37 41 45 49 50 51 53 56
49 43 45 52 43 32 22 25 31 32 30 28 23 24 23 19 21 19 19 18 14 12 11 8 10 8 8 7 7 10 17 18 21 26 23 22 25 40 42 44 46 48 50 50 49
46 39 47 45 38 37 34 35 36 32 32 32 28 27 24 18 17 18 21 23 30 16 10 15 7 10 7 10 12 10 8 14 9 10 31 27 27 36 42 44 46 48 47 48 49
47 45 50 44 37 37 39 39 36 37 35 31 26 24 25 19 18 20 25 26 34 37 18 10 8 7 7 7 10 10 16 17 18 24 32 28 27 35 42 45 46 46 48 50 51
47 44 48 46 43 41 42 41 41 41 38 34 32 29 25 19 20 22 26 29 37 40 51 28 7 8 9 7 10 11 13 18 16 15 19 29 24 25 35 45 45 47 49 50 51
47 46 48 44 44 46 43 42 41 42 43 41 37 40 34 20 19 24 30 37 37 47 39 17 14 28 9 13 34 40 37 20 15 14 13 19 25 27 48 48 49 46 48 50 50
47 47 49 46 46 45 43 43 43 44 44 40 42 43 37 34 33 33 36 40 35 35 36 35 32 34 22 28 37 42 44 45 47 48 44 42 36 46 49 50 48 47 51 51 51
49 49 49 45 46 44 44 45 45 45 45 44 44 43 39 40 44 41 38 38 38 40 35 35 33 30 28 31 35 24 43 45 46 48 48 41 41 49 50 51 49 49 51 47 52
Lifted_Index
15 14 14 14 14 14 14 14 14 14 14 14 14 14 14 14 13 12 10 7 2 -2 -2 -2 -2 -3 -3 -3 -2 -1 -1 -1 -2 -2 -1 -1 -2 -2 -2 -2 -2 -2 -2 -2 -2
14 14 14 14 14 14 14 14 14 14 14 14 14 14 14 13 13 11 10 6 0 -2 -1 -2 -2 -3 -3 -3 -2 -1 -1 -1 -2 -2 -2 -2 -2 -2 -2 -2 -2 -2 -2 -2 -2
14 14 14 14 14 14 14 14 14 14 14 14 14 13 13 12 11 10 7 2 -2 -2 -1 -2 -3 -3 -2 -2 -1 -1 -1 -1 -2 -2 -2 -1 -1 -2 -2 -2 -2 -2 -2 -2 -2
14 14 14 14 14 14 14 14 14 14 14 14 14 13 13 11 9 7 3 -1 -3 -2 -1 -1 -1 -1 -0 -0 -0 -1 -1 -1 -2 -2 -2 -2 -1 -2 -2 -2 -2 -2 -2 -2 -2
14 14 14 14 14 14 14 14 14 14 14 14 13 13 12 10 8 3 -1 -3 -3 -1 1 2 1 1 1 1 1 -0 -0 -1 -1 -2 -2 -2 -2 -2 -2 -2 -2 -2 -2 -2 -2
14 14 14 14 14 14 14 14 14 14 14 14 13 12 10 9 7 2 -2 -3 -2 1 4 4 3 2 2 2 1 -0 -0 -0 -1 -2 -2 -2 -2 -2 -2 -2 -2 -2 -2 -2 -2
14 14 14 14 13 13 13 14 14 14 14 13 12 11 10 9 8 5 2 1 2 3 5 6 4 3 2 1 1 -0 -0 -0 -1 -1 -2 -2 -2 -2 -2 -2 -2 -2 -2 -2 -2
13 13 13 13 13 13 13 13 12 12 12 12 11 10 9 9 9 8 7 7 6 6 7 7 5 3 2 1 1 1 0 -0 -1 -1 -2 -2 -2 -2 -2 -2 -2 -2 -2 -2 -2
12 13 13 13 13 13 12 11 11 10 11 11 11 10 9 9 10 9 9 9 8 8 7 6 5 2 1 1 1 1 1 0 -0 -1 -2 -2 -2 -3 -3 -2 -2 -1 -1 -1 -1
12 12 13 13 13 13 12 11 10 10 10 10 9 9 9 9 9 9 9 9 9 7 6 5 3 2 1 1 1 1 2 1 0 -1 -1 -2 -2 -2 -3 -2 -2 -1 -1 -1 -1
12 12 12 13 13 12 11 11 11 10 9 9 8 8 9 9 9 9 9 8 8 6 5 4 3 2 1 1 1 2 2 2 0 -1 -1 -1 -1 -2 -2 -2 -2 -1 -1 -0 -0
12 12 12 12 13 12 11 11 11 10 9 8 8 8 9 9 9 8 8 8 7 6 5 4 3 3 2 1 2 2 2 2 0 -1 -1 -1 -1 -1 -1 -1 -2 -1 -1 -0 -0
11 11 12 12 12 12 11 10 11 10 8 7 8 8 8 8 8 8 8 7 6 5 5 4 4 3 2 1 2 2 2 1 0 -1 -1 -1 -1 -1 -1 -1 -1 -1 -1 -0 -0
11 11 11 12 12 12 11 10 10 9 6 6 7 8 8 8 8 8 8 8 6 6 5 4 4 4 2 2 2 2 2 1 0 -0 -0 -0 0 0 -0 -0 -1 -1 -0 -0 -0
11 11 11 11 12 11 11 10 10 7 5 5 7 8 8 8 8 8 8 8 7 6 5 5 5 4 3 2 2 2 1 0 -0 0 0 1 1 1 1 0 0 0 -0 -0 -0
11 11 11 11 11 11 10 9 8 6 4 5 7 7 7 7 8 8 8 7 7 6 5 5 5 5 4 3 3 2 1 0 -0 0 0 1 1 2 1 1 1 0 0 -0 -0
10 10 10 11 11 11 10 8 6 5 5 6 6 6 6 7 7 7 7 6 6 5 4 4 4 4 4 3 2 2 1 1 0 0 1 1 2 2 2 1 1 1 1 0 -0
10 10 10 10 11 10 9 7 5 5 6 6 5 5 5 6 6 7 6 5 5 4 3 3 3 4 3 2 1 1 1 1 0 1 2 2 2 2 2 2 1 1 1 0 -1
10 9 9 9 9 9 8 6 5 6 6 6 5 4 5 5 6 6 5 5 5 5 4 3 3 3 3 2 1 1 1 1 1 1 2 2 2 2 2 2 2 1 1 -0 -1
10 9 8 8 8 8 7 6 6 7 7 6 5 4 4 4 4 4 4 4 4 4 4 4 3 3 3 3 2 1 1 0 0 1 1 1 1 1 2 2 2 1 1 0 -0
9 8 7 8 8 8 7 6 6 7 6 6 5 4 4 4 3 3 3 3 3 4 4 4 3 3 3 2 2 1 1 0 0 1 1 1 1 1 2 2 1 1 1 0 0
9 8 7 8 7 6 6 5 5 5 5 4 4 4 4 3 3 3 3 3 2 2 3 4 3 2 2 2 2 1 1 1 1 1 1 1 1 1 1 1 1 1 1 1 0
8 7 7 7 6 5 5 4 4 3 3 3 3 3 3 2 2 2 2 2 1 1 2 3 3 2 1 1 1 1 1 1 1 0 0 1 2 2 1 1 1 1 0 0 0
7 6 5 5 5 5 4 4 3 2 2 2 1 2 2 2 2 2 2 1 0 0 1 2 2 1 1 1 1 1 1 1 1 0 0 1 1 2 1 1 1 1 0 0 0
7 6 5 4 4 4 3 3 2 2 1 1 0 1 1 1 1 1 1 0 -0 -0 0 1 1 1 1 1 1 1 1 1 0 0 0 1 1 1 1 1 1 1 1 0 0
7 6 5 4 3 3 3 2 2 1 1 0 -0 -0 -0 0 1 1 0 0 -0 -0 -0 -0 0 1 1 1 1 1 1 0 0 0 1 1 1 1 1 1 1 1 1 1 1
7 7 5 4 3 3 2 2 2 1 0 -0 -1 -1 -1 -0 0 0 0 0 -0 -0 -0 -0 -0 0 1 1 1 1 1 0 0 0 0 1 1 0 1 1 1 1 1 1 1